User: anonymous   Login
Location: Bouchavesnes-Bergen
(49.9859°N, 2.9203°E)
Time: 23:32:41
(UTC+00:00)
Language:

SKYMED 3 - Orbit

View from above orbital plane
View from above orbital plane
View from above satellite
View from above satellite

Ground track
Ground track

The orbit data is extracted from the following two-line orbital elements,

1 33412U 08054A   21128.49037131  .00000789  00000-0  10568-3 0  9999
2 33412  97.8902 312.9503 0001582 103.5327 256.5978 14.82162155678187
Epoch (UTC): 08 May 2021 11:46:08
Eccentricity: 0.0001582
inclination: 97.8902°
perigee height: 621 km
apogee height: 623 km
right ascension of ascending node: 312.9503°
argument of perigee: 103.5327°
revolutions per day: 14.82162155
mean anomaly at epoch: 256.5978°
orbit number at epoch: 67818

The dashed part of the orbit path shows where the satellite is in the earth's shadow,  

DLR